COSMOS 2251 DEB, 34979

Orbit data source: Space-Track

COSMOS 2251 DEB, 34979 is space debris in LEO originally from a launch on Wed, 16 Jun 1993 UTC launched from the Plesetsk Missile And Space Complex (PKMTR). The debris from Iridium 33, an American commercial communications satellite, has been tracked extensively since its accidental collision with the defunct Russian satellite Cosmos 2251 in 2009. This event, occurring at high speed in low Earth orbit (LEO), generated thousands of pieces of space debris, significantly increasing the risk of further collisions. The Iridium 33 debris cloud has impacted space traffic management and orbital debris mitigation strategies, making it a subject of ongoing study in space situational awareness.

Loading next visibility...
Identifier
34979, 1993-036AFJ
Orbit
LEO
Country
Flag of CISCIS
Related business
Manufacturer
Unknown
Mission
Spacecraft
Bus & Motor
Unknown
Mass
Unknown
Launch date (UTC)
1993-06-16 (33 years ago)
Launch vehicle
Unknown
Launch site
Plesetsk Missile And Space Complex (PKMTR)
Object type
Payload
Rocket body
Debris
Shape & HBR
Unknown shape, 0.1 m
Radar Cross Section
Medium (>0.1 m² and <1 m²)

Expand to show TLE details & history
Last TLE update: 8 hours ago

TLE from 8 hours ago
0 COSMOS 2251 DEB
1 34979U 93036AFJ 26257.49955512  .00005130  00000-0  61949-3 0  9996
2 34979  74.0361  82.7203 0045670  92.5213 268.1195 14.83279777923046
Epoch: 2026-09-14T11:59Z
TLE epoch observation values (Epoch: 2026-09-14T11:59:21.562Z)
Latitude
0.00003°
Longitude
-90.5985°
Altitude
622.853 km
Speed
7.547 km/s
True Right ascension
05h 30m 52s
True Declination
0° 00' 00"
Sunlit
Object was in daylight at epoch
Visualization orbit readout
Latitude
Unknown
Longitude
Unknown
Altitude
Unknown
Speed
Unknown
Apparent Right ascension
Unknown
Apparent Declination
Unknown
Sunlit
N/A
Visualization observer readout
Local Sidereal Time
12:15:14
Azimuth
Unknown
Elevation
Unknown
Doppler factor
Unknown
Orbital elements
Apogee altitude
648.507 km
Perigee altitude
584.618 km
Semi-major axis
6,994.699 km
Eccentricity
0.00457
Inclination
74.0361°
RAAN
82.7203°
Arg. of periapsis
92.5213°
True anomaly
267.59655°
Mean anomaly
268.1195°
Eccentric anomaly
267.85801°
Mean motion
3.71013 °/min
Orbital period
97.03 mins
BSTAR
0.00061949
Loading maneuver chart data...
Computing Atmospheric mass density...

Documentation

Showing up to 5 results
|